Superior, WI

8:58 AM CST on December 07, 2016 (GMT -0600)
Bong

Weather History for KSUW - May, 2014

Change the Weather History Date:

Thursday, May 8, 2014

  Actual Average Record
Temperature  
Mean Temperature 38 °F -  
Max Temperature 41 °F 57 °F 90 °F (1953)
Min Temperature 35 °F 38 °F 22 °F (1956)
Degree Days  
Heating Degree Days 27    
Moisture  
Dew Point 37 °F    
Average Humidity 96    
Maximum Humidity 99    
Minimum Humidity 90    
Precipitation  
Precipitation 0.78 in - - ()
Sea Level Pressure  
Sea Level Pressure 29.76 in    
Wind  
Wind Speed 9 mph (ENE)    
Max Wind Speed 16 mph    
Max Gust Speed 24 mph    
Visibility 8 miles    
Events Rain , Snow    
Averages and records for this station are not official NWS values.
T = Trace of Precipitation, MM = Missing Value Source: NWS Daily Summary

Daily Weather History Graph

Daily Weather History Graph

Search for Another Location

Airport or City:

Trip Planner

Search our weather history database for the weather conditions in past years. The results will help you decide how hot, cold, wet, or windy it might be!

Date:

Astronomy

May. 08, 2014 Rise Set
Actual Time 5:43 AM CDT 8:27 PM CDT
Civil Twilight 5:08 AM CDT 9:02 PM CDT
Nautical Twilight 4:24 AM CDT 9:46 PM CDT
Astronomical Twilight 3:33 AM CDT 10:38 PM CDT
Moon 2:06 PM CDT (5/8) 2:37 AM CDT (5/8)
Length of Visible Light 15h 53m
Length of Day
14h 44m
Waxing Gibbous, 65% of the Moon is Illuminated
May 8
Waxing Gibbous
May 14
Full
May 21
Last Quarter
May 28
New
Jun 5
First Quarter

Hourly Weather History & Observations

Time (CDT) Temp. Windchill Dew Point Humidity Pressure Visibility Wind Dir Wind Speed Gust Speed Precip Events Conditions
12:15 AM 36.9 °F 29.6 °F 35.8 °F 96% 29.82 in 7.0 mi NE 10.4 mph 21.9 mph 0.01 in Rain Light Rain
12:35 AM 38.5 °F 32.7 °F 37.4 °F 96% 29.81 in 10.0 mi North 8.1 mph 19.6 mph 0.01 in Rain Light Rain
12:55 AM 39.2 °F 33.6 °F 37.9 °F 95% 29.84 in 10.0 mi NE 8.1 mph - 0.01 in   Light Drizzle
1:15 AM 40.1 °F 36.1 °F 39.2 °F 97% 29.82 in 10.0 mi NE 5.8 mph - N/A   Overcast
1:35 AM 41.0 °F 36.4 °F 39.4 °F 94% 29.83 in 10.0 mi ENE 6.9 mph - N/A   Overcast
1:55 AM 40.3 °F 35.5 °F 39.2 °F 96% 29.80 in 10.0 mi North 6.9 mph 21.9 mph N/A Rain Light Rain
2:15 AM 41.0 °F 35.2 °F 40.1 °F 97% 29.77 in 10.0 mi East 9.2 mph - N/A   Overcast
2:55 AM 40.1 °F 33.6 °F 38.7 °F 95% 29.77 in 10.0 mi East 10.4 mph 17.3 mph N/A   Overcast
3:15 AM 40.1 °F 32.4 °F 38.3 °F 93% 29.76 in 10.0 mi ENE 13.8 mph 20.7 mph N/A   Overcast
3:35 AM 39.2 °F 31.2 °F 37.6 °F 94% 29.77 in 10.0 mi ENE 13.8 mph 24.2 mph N/A   Overcast
3:55 AM 38.3 °F 29.7 °F 36.9 °F 95% 29.74 in 10.0 mi ENE 15.0 mph 19.6 mph N/A   Overcast
4:15 AM 37.8 °F 31.3 °F 36.7 °F 96% 29.76 in 10.0 mi East 9.2 mph 21.9 mph N/A   Overcast
4:35 AM 37.6 °F 31.0 °F 36.5 °F 96% 29.80 in 10.0 mi East 9.2 mph - N/A   Overcast
4:55 AM 37.4 °F 31.4 °F 36.5 °F 97% 29.77 in 10.0 mi East 8.1 mph - N/A   Overcast
5:15 AM 36.7 °F 29.4 °F 35.8 °F 97% 29.74 in 10.0 mi NE 10.4 mph 17.3 mph N/A   Overcast
5:35 AM 37.4 °F 32.1 °F 36.3 °F 96% 29.81 in 10.0 mi NNE 6.9 mph - N/A Rain Light Rain
5:55 AM 37.9 °F 31.5 °F 37.0 °F 97% 29.80 in 4.0 mi East 9.2 mph - 0.04 in Rain Light Rain
6:15 AM 37.6 °F 33.1 °F 36.7 °F 97% 29.81 in 10.0 mi East 5.8 mph - N/A   Overcast
6:35 AM 38.1 °F 32.3 °F 37.0 °F 96% 29.82 in 10.0 mi ENE 8.1 mph - N/A   Overcast
6:55 AM 38.7 °F 32.9 °F 37.4 °F 95% 29.82 in 10.0 mi ENE 8.1 mph - N/A   Overcast
7:15 AM 38.5 °F 30.3 °F 37.0 °F 95% 29.78 in 10.0 mi East 13.8 mph 19.6 mph N/A   Overcast
7:35 AM 38.5 °F 30.3 °F 36.7 °F 93% 29.79 in 10.0 mi ENE 13.8 mph 20.7 mph N/A   Overcast
7:55 AM 37.6 °F 30.0 °F 36.1 °F 95% 29.78 in 10.0 mi ENE 11.5 mph 17.3 mph N/A   Overcast
8:15 AM 37.8 °F 33.3 °F 36.5 °F 95% 29.79 in 10.0 mi ENE 5.8 mph - N/A   Overcast
8:35 AM 37.8 °F 34.2 °F 36.3 °F 95% 29.83 in 10.0 mi ENE 4.6 mph - N/A   Overcast
8:55 AM 37.6 °F 33.1 °F 36.5 °F 96% 29.81 in 10.0 mi NE 5.8 mph - N/A   Overcast
9:15 AM 37.8 °F 30.2 °F 36.5 °F 95% 29.81 in 10.0 mi ENE 11.5 mph - N/A   Overcast
9:35 AM 37.9 °F 33.5 °F 36.3 °F 94% 29.83 in 10.0 mi East 5.8 mph - N/A   Overcast
9:55 AM 37.8 °F 30.2 °F 36.1 °F 94% 29.82 in 10.0 mi East 11.5 mph - N/A   Overcast
10:15 AM 38.3 °F 32.5 °F 36.5 °F 93% 29.81 in 10.0 mi ENE 8.1 mph - N/A   Overcast
10:35 AM 38.1 °F 30.7 °F 36.1 °F 93% 29.80 in 10.0 mi ENE 11.5 mph 16.1 mph N/A   Overcast
10:55 AM 36.9 °F 32.2 °F 35.6 °F 95% 29.81 in 10.0 mi NE 5.8 mph - N/A   Overcast
11:15 AM 37.4 °F 29.8 °F 36.1 °F 95% 29.79 in 10.0 mi ENE 11.5 mph 16.1 mph N/A   Overcast
11:35 AM 38.7 °F 31.4 °F 36.9 °F 93% 29.79 in 10.0 mi ENE 11.5 mph 19.6 mph N/A   Overcast
11:55 AM 39.2 °F 31.6 °F 37.0 °F 92% 29.79 in 10.0 mi East 12.7 mph 20.7 mph N/A   Overcast
12:15 PM 39.9 °F 33.9 °F 37.4 °F 91% 29.78 in 10.0 mi NE 9.2 mph 16.1 mph N/A   Overcast
12:35 PM 39.2 °F 32.5 °F 36.9 °F 91% 29.79 in 10.0 mi ENE 10.4 mph 16.1 mph N/A   Overcast
12:55 PM 39.2 °F 33.0 °F 36.9 °F 91% 29.79 in 10.0 mi ENE 9.2 mph - N/A   Overcast
1:15 PM 39.2 °F 31.6 °F 36.7 °F 91% 29.79 in 10.0 mi East 12.7 mph - N/A   Overcast
1:35 PM 40.5 °F 35.1 °F 37.8 °F 90% 29.77 in 10.0 mi ENE 8.1 mph - N/A   Overcast
1:55 PM 39.9 °F 33.9 °F 37.2 °F 90% 29.77 in 10.0 mi ENE 9.2 mph - N/A   Overcast
2:15 PM 39.2 °F 33.0 °F 36.7 °F 91% 29.77 in 10.0 mi ENE 9.2 mph - N/A   Overcast
2:35 PM 38.5 °F 32.7 °F 36.1 °F 91% 29.78 in 10.0 mi NE 8.1 mph - N/A   Overcast
2:55 PM 38.1 °F 32.3 °F 36.0 °F 92% 29.76 in 10.0 mi ENE 8.1 mph - N/A   Overcast
3:15 PM 38.1 °F 32.3 °F 36.1 °F 93% 29.75 in 10.0 mi ENE 8.1 mph - N/A   Overcast
3:35 PM 37.6 °F 31.6 °F 35.8 °F 93% 29.73 in 10.0 mi ENE 8.1 mph - N/A   Overcast
3:55 PM 37.0 °F 30.4 °F 35.6 °F 95% 29.72 in 10.0 mi NE 9.2 mph - N/A   Overcast
4:15 PM 36.5 °F 32.7 °F 35.4 °F 96% 29.73 in 7.0 mi NE 4.6 mph - N/A   Overcast
4:35 PM 35.8 °F - 35.2 °F 98% 29.78 in 2.0 mi Calm Calm - N/A Rain Light Rain
4:55 PM 35.8 °F 30.9 °F 35.6 °F 99% 29.78 in 1.8 mi North 5.8 mph - 0.02 in Rain Rain
5:15 PM 36.1 °F 29.9 °F 35.8 °F 99% 29.77 in 2.0 mi NE 8.1 mph - 0.04 in Rain Rain
5:35 PM 36.0 °F 30.3 °F 35.8 °F 99% 29.78 in 1.8 mi NNE 6.9 mph - 0.11 in Rain Heavy Rain
5:55 PM 36.5 °F 28.7 °F 36.1 °F 99% 29.74 in 1.2 mi NE 11.5 mph - 0.23 in Rain Heavy Rain
6:15 PM 37.0 °F 30.4 °F 36.9 °F 99% 29.77 in 2.0 mi East 9.2 mph - 0.05 in Rain Rain
6:35 PM 37.4 °F 29.8 °F 37.2 °F 99% 29.75 in 2.0 mi ENE 11.5 mph 17.3 mph 0.14 in Rain Rain
6:55 PM 37.9 °F 32.1 °F 37.8 °F 99% 29.75 in 1.5 mi ENE 8.1 mph - 0.25 in Rain Rain
7:15 PM 39.0 °F 33.4 °F 38.7 °F 99% 29.76 in 1.8 mi ENE 8.1 mph - 0.06 in Rain Rain
7:35 PM 39.0 °F 31.0 °F 38.7 °F 99% 29.68 in 3.0 mi East 13.8 mph 20.7 mph 0.09 in Rain Light Rain
7:55 PM 40.1 °F 31.6 °F 39.9 °F 99% 29.67 in 5.0 mi East 16.1 mph 23.0 mph 0.10 in Rain Light Rain
8:15 PM 38.3 °F 30.5 °F 37.9 °F 99% 29.68 in 3.0 mi East 12.7 mph 19.6 mph N/A   Overcast
8:35 PM 37.6 °F 29.1 °F 37.4 °F 99% 29.67 in 4.0 mi East 13.8 mph 18.4 mph N/A   Overcast
8:55 PM 37.8 °F - 37.6 °F 99% 29.69 in 4.0 mi Calm Calm - N/A   Overcast
9:15 PM 38.1 °F 32.9 °F 37.8 °F 99% 29.70 in 4.0 mi East 6.9 mph - N/A   Overcast
9:35 PM 37.8 °F 30.7 °F 37.6 °F 99% 29.68 in 2.5 mi ENE 10.4 mph - N/A Snow Light Snow
9:55 PM 37.6 °F 30.5 °F 37.4 °F 99% 29.67 in 3.0 mi NE 10.4 mph - N/A   Light Drizzle
10:15 PM 37.6 °F 31.0 °F 37.4 °F 99% 29.65 in 5.0 mi NE 9.2 mph - N/A   Overcast
10:35 PM 37.4 °F 32.1 °F 37.0 °F 99% 29.65 in 5.0 mi NNE 6.9 mph - N/A   Overcast
11:15 PM 37.8 °F 31.8 °F 37.6 °F 99% 29.71 in 5.0 mi WSW 8.1 mph - 0.01 in Rain Rain
11:35 PM 38.3 °F 35.9 °F 37.9 °F 99% 29.67 in 2.5 mi North 3.5 mph - 0.07 in Rain Rain
11:55 PM 38.5 °F 30.7 °F 38.3 °F 99% 29.64 in 4.0 mi East 12.7 mph - 0.13 in Rain Light Rain